Time,TemperatureF,DewpointF,PressureIn,WindDirection,WindDirectionDegrees,WindSpeedMPH,WindSpeedGustMPH,Humidity,HourlyPrecipIn,Conditions,Clouds,dailyrainin,SoftwareType,DateUTC
2013-02-24 00:04:00,69.8,67.4,29.93,WSW,250,2.0,3.0,92,0.00,CLR,CLR,0.00,WeatherDisplay:10.37,2013-02-24 05:04:00,
2013-02-24 00:09:00,69.8,67.7,29.93,WSW,241,2.0,3.0,93,0.00,CLR,CLR,0.00,WeatherDisplay:10.37,2013-02-24 05:09:00,
2013-02-24 00:14:00,69.8,67.7,29.93,SW,232,2.0,4.0,93,0.00,CLR,CLR,0.00,WeatherDisplay:10.37,2013-02-24 05:14:00,
2013-02-24 00:19:00,69.8,67.7,29.93,WSW,253,1.0,5.0,93,0.00,CLR,CLR,0.00,WeatherDisplay:10.37,2013-02-24 05:19:00,
2013-02-24 00:24:00,69.6,67.5,29.93,West,259,2.0,3.0,93,0.00,CLR,CLR,0.00,WeatherDisplay:10.37,2013-02-24 05:24:00,
2013-02-24 00:29:00,69.6,67.8,29.93,WSW,253,2.0,3.0,94,0.00,CLR,CLR,0.00,WeatherDisplay:10.37,2013-02-24 05:29:00,
2013-02-24 00:34:00,69.6,67.8,29.93,WSW,250,3.0,5.0,94,0.00,CLR,CLR,0.00,WeatherDisplay:10.37,2013-02-24 05:34:00,
2013-02-24 00:39:00,69.4,67.6,29.92,WSW,250,1.0,3.0,94,0.00,CLR,CLR,0.00,WeatherDisplay:10.37,2013-02-24 05:39:00,
2013-02-24 00:44:00,69.4,67.6,29.92,WSW,246,2.0,3.0,94,0.00,CLR,CLR,0.00,WeatherDisplay:10.37,2013-02-24 05:44:00,
2013-02-24 00:49:00,69.3,67.5,29.92,WSW,239,2.0,3.0,94,0.00,CLR,CLR,0.00,WeatherDisplay:10.37,2013-02-24 05:49:00,
2013-02-24 00:54:00,69.3,67.8,29.92,SW,236,2.0,3.0,95,0.00,CLR,CLR,0.00,WeatherDisplay:10.37,2013-02-24 05:54:00,
2013-02-24 00:59:00,69.1,67.6,29.92,WSW,241,1.0,3.0,95,0.00,CLR,CLR,0.00,WeatherDisplay:10.37,2013-02-24 05:59:00,
2013-02-24 01:04:00,69.0,67.5,29.92,SW,235,1.0,3.0,95,0.00,CLR,CLR,0.00,WeatherDisplay:10.37,2013-02-24 06:04:00,
2013-02-24 01:09:00,68.9,67.4,29.92,WSW,237,1.0,2.0,95,0.00,CLR,CLR,0.00,WeatherDisplay:10.37,2013-02-24 06:09:00,
2013-02-24 01:14:00,68.7,67.2,29.92,WSW,241,1.0,3.0,95,0.00,CLR,CLR,0.00,WeatherDisplay:10.37,2013-02-24 06:14:00,
2013-02-24 01:19:00,68.7,67.5,29.92,SW,230,2.0,3.0,96,0.00,CLR,CLR,0.00,WeatherDisplay:10.37,2013-02-24 06:19:00,
2013-02-24 01:24:00,68.7,67.5,29.92,SW,221,1.0,3.0,96,0.00,CLR,CLR,0.00,WeatherDisplay:10.37,2013-02-24 06:24:00,
2013-02-24 01:29:00,68.5,67.3,29.92,SW,227,1.0,3.0,96,0.00,CLR,CLR,0.00,WeatherDisplay:10.37,2013-02-24 06:29:00,
2013-02-24 01:34:00,68.4,67.2,29.92,SW,227,2.0,3.0,96,0.00,CLR,CLR,0.00,WeatherDisplay:10.37,2013-02-24 06:34:00,
2013-02-24 01:39:00,68.4,67.2,29.92,SW,227,2.0,3.0,96,0.00,CLR,CLR,0.00,WeatherDisplay:10.37,2013-02-24 06:39:00,
2013-02-24 01:44:00,68.4,67.2,29.92,SW,232,3.0,4.0,96,0.00,CLR,CLR,0.00,WeatherDisplay:10.37,2013-02-24 06:44:00,
2013-02-24 01:49:00,68.4,67.2,29.91,SW,235,2.0,4.0,96,0.00,CLR,CLR,0.00,WeatherDisplay:10.37,2013-02-24 06:49:00,
2013-02-24 01:54:00,68.4,67.5,29.91,SW,229,2.0,4.0,97,0.00,CLR,CLR,0.00,WeatherDisplay:10.37,2013-02-24 06:54:00,
2013-02-24 01:59:00,68.4,67.5,29.91,SW,236,3.0,5.0,97,0.00,CLR,CLR,0.00,WeatherDisplay:10.37,2013-02-24 06:59:00,
2013-02-24 02:04:00,68.4,67.5,29.90,SW,217,3.0,5.0,97,0.00,CLR,CLR,0.00,WeatherDisplay:10.37,2013-02-24 07:04:00,
2013-02-24 02:09:00,68.4,67.5,29.90,SW,216,3.0,5.0,97,0.00,CLR,CLR,0.00,WeatherDisplay:10.37,2013-02-24 07:09:00,
2013-02-24 02:14:00,68.2,67.3,29.90,SW,220,2.0,4.0,97,0.00,CLR,CLR,0.00,WeatherDisplay:10.37,2013-02-24 07:14:00,
2013-02-24 02:19:00,68.2,67.3,29.90,SW,224,3.0,4.0,97,0.00,CLR,CLR,0.00,WeatherDisplay:10.37,2013-02-24 07:19:00,
2013-02-24 02:24:00,68.2,67.3,29.90,SW,234,3.0,5.0,97,0.00,CLR,CLR,0.00,WeatherDisplay:10.37,2013-02-24 07:24:00,
2013-02-24 02:29:00,68.2,67.3,29.90,WSW,238,3.0,5.0,97,0.00,CLR,CLR,0.00,WeatherDisplay:10.37,2013-02-24 07:29:00,
2013-02-24 02:34:00,68.0,67.1,29.90,WSW,245,3.0,4.0,97,0.00,CLR,CLR,0.00,WeatherDisplay:10.37,2013-02-24 07:34:00,
2013-02-24 02:39:00,68.0,67.1,29.90,WSW,245,2.0,4.0,97,0.00,CLR,CLR,0.00,WeatherDisplay:10.37,2013-02-24 07:39:00,
2013-02-24 02:44:00,68.0,67.1,29.90,SW,236,2.0,5.0,97,0.00,CLR,CLR,0.00,WeatherDisplay:10.37,2013-02-24 07:44:00,
2013-02-24 02:49:00,68.0,67.1,29.90,SW,233,2.0,5.0,97,0.00,CLR,CLR,0.00,WeatherDisplay:10.37,2013-02-24 07:49:00,
2013-02-24 02:54:00,67.8,66.9,29.90,SW,220,3.0,6.0,97,0.00,CLR,CLR,0.00,WeatherDisplay:10.37,2013-02-24 07:54:00,
2013-02-24 02:59:00,67.6,66.7,29.90,SSW,205,3.0,5.0,97,0.00,CLR,CLR,0.00,WeatherDisplay:10.37,2013-02-24 07:59:00,
2013-02-24 03:04:00,67.6,66.7,29.90,SW,217,3.0,6.0,97,0.00,CLR,CLR,0.00,WeatherDisplay:10.37,2013-02-24 08:04:00,
2013-02-24 03:09:00,67.6,67.0,29.90,SW,228,2.0,6.0,98,0.00,CLR,CLR,0.00,WeatherDisplay:10.37,2013-02-24 08:09:00,
2013-02-24 03:14:00,67.6,67.0,29.90,WSW,241,2.0,5.0,98,0.00,CLR,CLR,0.00,WeatherDisplay:10.37,2013-02-24 08:14:00,
2013-02-24 03:19:00,67.6,67.0,29.90,SW,231,3.0,6.0,98,0.00,CLR,CLR,0.00,WeatherDisplay:10.37,2013-02-24 08:19:00,
2013-02-24 03:24:00,67.6,67.0,29.90,SSW,213,3.0,6.0,98,0.00,CLR,CLR,0.00,WeatherDisplay:10.37,2013-02-24 08:24:00,
2013-02-24 03:29:00,67.6,67.0,29.90,SW,216,5.0,6.0,98,0.00,CLR,CLR,0.00,WeatherDisplay:10.37,2013-02-24 08:29:00,
2013-02-24 03:34:00,67.6,67.0,29.90,SW,227,3.0,6.0,98,0.00,CLR,CLR,0.00,WeatherDisplay:10.37,2013-02-24 08:34:00,
2013-02-24 03:39:00,67.6,67.0,29.89,SW,218,5.0,8.0,98,0.00,CLR,CLR,0.00,WeatherDisplay:10.37,2013-02-24 08:39:00,
2013-02-24 03:44:00,67.6,67.0,29.89,SW,223,3.0,6.0,98,0.00,CLR,CLR,0.00,WeatherDisplay:10.37,2013-02-24 08:44:00,
2013-02-24 03:49:00,67.6,67.0,29.89,SW,229,5.0,6.0,98,0.00,CLR,CLR,0.00,WeatherDisplay:10.37,2013-02-24 08:49:00,
2013-02-24 03:54:00,67.6,67.0,29.89,SW,223,5.0,6.0,98,0.00,CLR,CLR,0.00,WeatherDisplay:10.37,2013-02-24 08:54:00,
2013-02-24 03:59:00,67.6,67.0,29.89,SW,227,5.0,6.0,98,0.00,CLR,CLR,0.00,WeatherDisplay:10.37,2013-02-24 08:59:00,
2013-02-24 04:04:00,67.5,66.9,29.89,SW,236,3.0,6.0,98,0.00,CLR,CLR,0.00,WeatherDisplay:10.37,2013-02-24 09:04:00,
2013-02-24 04:09:00,67.5,66.9,29.89,SSW,213,3.0,5.0,98,0.00,CLR,CLR,0.00,WeatherDisplay:10.37,2013-02-24 09:09:00,
2013-02-24 04:14:00,67.5,66.9,29.90,WSW,237,3.0,8.0,98,0.00,CLR,CLR,0.00,WeatherDisplay:10.37,2013-02-24 09:14:00,
2013-02-24 04:19:00,67.3,66.7,29.90,SW,235,3.0,5.0,98,0.00,CLR,CLR,0.00,WeatherDisplay:10.37,2013-02-24 09:19:00,
2013-02-24 04:24:00,67.3,66.7,29.89,SW,230,2.0,7.0,98,0.00,CLR,CLR,0.00,WeatherDisplay:10.37,2013-02-24 09:24:00,
2013-02-24 04:29:00,67.3,66.7,29.89,WSW,244,2.0,6.0,98,0.00,CLR,CLR,0.00,WeatherDisplay:10.37,2013-02-24 09:29:00,
2013-02-24 04:34:00,67.3,66.7,29.89,SSW,209,5.0,6.0,98,0.00,CLR,CLR,0.00,WeatherDisplay:10.37,2013-02-24 09:34:00,
2013-02-24 04:39:00,67.3,66.7,29.89,SSW,206,3.0,6.0,98,0.00,CLR,CLR,0.00,WeatherDisplay:10.37,2013-02-24 09:39:00,
2013-02-24 04:44:00,67.1,66.5,29.89,SW,224,5.0,6.0,98,0.00,CLR,CLR,0.00,WeatherDisplay:10.37,2013-02-24 09:44:00,
2013-02-24 04:49:00,67.1,66.5,29.88,SW,218,3.0,5.0,98,0.00,CLR,CLR,0.00,WeatherDisplay:10.37,2013-02-24 09:49:00,
2013-02-24 04:54:00,67.1,66.5,29.88,SW,223,3.0,5.0,98,0.00,CLR,CLR,0.00,WeatherDisplay:10.37,2013-02-24 09:54:00,
2013-02-24 04:59:00,67.1,66.5,29.88,SW,219,3.0,5.0,98,0.00,CLR,CLR,0.00,WeatherDisplay:10.37,2013-02-24 09:59:00,
2013-02-24 05:04:00,67.1,66.5,29.89,SW,230,5.0,6.0,98,0.00,CLR,CLR,0.00,WeatherDisplay:10.37,2013-02-24 10:04:00,
2013-02-24 05:09:00,67.1,66.5,29.89,SW,230,3.0,5.0,98,0.00,CLR,CLR,0.00,WeatherDisplay:10.37,2013-02-24 10:09:00,
2013-02-24 05:14:00,67.1,66.5,29.89,SW,221,2.0,7.0,98,0.00,CLR,CLR,0.00,WeatherDisplay:10.37,2013-02-24 10:14:00,
2013-02-24 05:19:00,67.1,66.5,29.89,WSW,237,3.0,6.0,98,0.00,CLR,CLR,0.00,WeatherDisplay:10.37,2013-02-24 10:19:00,
2013-02-24 05:24:00,67.1,66.5,29.90,WSW,241,5.0,6.0,98,0.00,CLR,CLR,0.00,WeatherDisplay:10.37,2013-02-24 10:24:00,
2013-02-24 05:29:00,67.1,66.5,29.90,SW,226,2.0,7.0,98,0.00,CLR,CLR,0.00,WeatherDisplay:10.37,2013-02-24 10:29:00,
2013-02-24 05:34:00,67.1,66.5,29.90,SW,233,5.0,6.0,98,0.00,CLR,CLR,0.00,WeatherDisplay:10.37,2013-02-24 10:34:00,
2013-02-24 05:39:00,67.1,66.5,29.90,WSW,242,3.0,6.0,98,0.00,CLR,CLR,0.00,WeatherDisplay:10.37,2013-02-24 10:39:00,
2013-02-24 05:44:00,67.1,66.5,29.90,WSW,255,3.0,6.0,98,0.00,CLR,CLR,0.00,WeatherDisplay:10.37,2013-02-24 10:44:00,
2013-02-24 05:49:00,67.1,66.5,29.90,WNW,282,3.0,6.0,98,0.00,CLR,CLR,0.00,WeatherDisplay:10.37,2013-02-24 10:49:00,
2013-02-24 05:54:00,67.1,66.5,29.90,WSW,249,5.0,5.0,98,0.00,CLR,CLR,0.00,WeatherDisplay:10.37,2013-02-24 10:54:00,
2013-02-24 05:59:00,67.1,66.5,29.90,SW,226,2.0,6.0,98,0.00,CLR,CLR,0.00,WeatherDisplay:10.37,2013-02-24 10:59:00,
2013-02-24 06:04:00,67.1,66.5,29.91,SW,236,2.0,4.0,98,0.00,CLR,CLR,0.00,WeatherDisplay:10.37,2013-02-24 11:04:00,
2013-02-24 06:09:00,67.1,66.5,29.91,SW,233,2.0,5.0,98,0.00,CLR,CLR,0.00,WeatherDisplay:10.37,2013-02-24 11:09:00,
2013-02-24 06:14:00,66.9,66.3,29.91,WSW,257,2.0,4.0,98,0.00,CLR,CLR,0.00,WeatherDisplay:10.37,2013-02-24 11:14:00,
2013-02-24 06:19:00,66.9,66.3,29.91,West,267,3.0,5.0,98,0.00,CLR,CLR,0.00,WeatherDisplay:10.37,2013-02-24 11:19:00,
2013-02-24 06:24:00,66.9,66.3,29.92,West,263,2.0,5.0,98,0.00,CLR,CLR,0.00,WeatherDisplay:10.37,2013-02-24 11:24:00,
2013-02-24 06:29:00,66.9,66.3,29.92,WSW,247,3.0,6.0,98,0.00,CLR,CLR,0.00,WeatherDisplay:10.37,2013-02-24 11:29:00,
2013-02-24 06:34:00,66.9,66.3,29.92,SW,233,5.0,6.0,98,0.00,CLR,CLR,0.00,WeatherDisplay:10.37,2013-02-24 11:34:00,
2013-02-24 06:39:00,66.9,66.3,29.92,WSW,243,2.0,4.0,98,0.00,CLR,CLR,0.00,WeatherDisplay:10.37,2013-02-24 11:39:00,
2013-02-24 06:44:00,66.9,66.3,29.92,WSW,238,3.0,6.0,98,0.00,CLR,CLR,0.00,WeatherDisplay:10.37,2013-02-24 11:44:00,
2013-02-24 06:49:00,66.9,66.3,29.93,SW,230,3.0,5.0,98,0.00,CLR,CLR,0.00,WeatherDisplay:10.37,2013-02-24 11:49:00,
2013-02-24 06:54:00,66.9,66.3,29.93,SW,225,3.0,6.0,98,0.00,CLR,CLR,0.00,WeatherDisplay:10.37,2013-02-24 11:54:00,
2013-02-24 06:59:00,66.9,66.3,29.93,SW,230,3.0,7.0,98,0.00,CLR,CLR,0.00,WeatherDisplay:10.37,2013-02-24 11:59:00,
2013-02-24 07:04:00,66.9,66.3,29.93,WSW,242,3.0,6.0,98,0.00,CLR,CLR,0.00,WeatherDisplay:10.37,2013-02-24 12:04:00,
2013-02-24 07:09:00,66.9,66.3,29.93,WSW,238,3.0,6.0,98,0.00,CLR,CLR,0.00,WeatherDisplay:10.37,2013-02-24 12:09:00,
2013-02-24 07:14:00,66.9,66.3,29.93,SW,234,2.0,5.0,98,0.00,CLR,CLR,0.00,WeatherDisplay:10.37,2013-02-24 12:14:00,
2013-02-24 07:19:00,67.0,66.4,29.93,WSW,250,3.0,5.0,98,0.00,CLR,CLR,0.00,WeatherDisplay:10.37,2013-02-24 12:19:00,
2013-02-24 07:24:00,67.1,66.5,29.94,WSW,240,3.0,5.0,98,0.00,CLR,CLR,0.00,WeatherDisplay:10.37,2013-02-24 12:24:00,
2013-02-24 07:29:00,67.3,66.7,29.94,WSW,246,2.0,5.0,98,0.00,CLR,CLR,0.00,WeatherDisplay:10.37,2013-02-24 12:29:00,
2013-02-24 07:34:00,67.5,66.6,29.94,West,266,3.0,5.0,97,0.00,CLR,CLR,0.00,WeatherDisplay:10.37,2013-02-24 12:34:00,
2013-02-24 07:39:00,67.5,66.6,29.95,WSW,252,3.0,5.0,97,0.00,CLR,CLR,0.00,WeatherDisplay:10.37,2013-02-24 12:39:00,
2013-02-24 07:44:00,67.7,66.8,29.95,SW,235,1.0,5.0,97,0.00,CLR,CLR,0.00,WeatherDisplay:10.37,2013-02-24 12:44:00,
2013-02-24 07:49:00,67.8,66.6,29.95,West,260,3.0,6.0,96,0.00,CLR,CLR,0.00,WeatherDisplay:10.37,2013-02-24 12:49:00,
2013-02-24 07:54:00,68.0,66.8,29.95,West,260,3.0,4.0,96,0.00,CLR,CLR,0.00,WeatherDisplay:10.37,2013-02-24 12:54:00,
2013-02-24 07:59:00,68.2,67.0,29.95,WSW,250,3.0,5.0,96,0.00,CLR,CLR,0.00,WeatherDisplay:10.37,2013-02-24 12:59:00,
2013-02-24 08:04:00,68.3,66.8,29.95,WSW,250,5.0,6.0,95,0.00,CLR,CLR,0.00,WeatherDisplay:10.37,2013-02-24 13:04:00,
2013-02-24 08:09:00,68.5,66.7,29.95,WSW,249,3.0,6.0,94,0.00,CLR,CLR,0.00,WeatherDisplay:10.37,2013-02-24 13:09:00,
2013-02-24 08:14:00,68.7,66.9,29.95,WSW,244,5.0,6.0,94,0.00,CLR,CLR,0.00,WeatherDisplay:10.37,2013-02-24 13:14:00,
2013-02-24 08:19:00,68.9,66.8,29.95,SW,234,3.0,6.0,93,0.00,CLR,CLR,0.00,WeatherDisplay:10.37,2013-02-24 13:19:00,
2013-02-24 08:24:00,69.1,67.0,29.95,WSW,242,2.0,5.0,93,0.00,CLR,CLR,0.00,WeatherDisplay:10.37,2013-02-24 13:24:00,
2013-02-24 08:29:00,69.3,66.9,29.95,WSW,247,2.0,6.0,92,0.00,CLR,CLR,0.00,WeatherDisplay:10.37,2013-02-24 13:29:00,
2013-02-24 08:34:00,69.4,67.0,29.95,West,265,3.0,7.0,92,0.00,CLR,CLR,0.00,WeatherDisplay:10.37,2013-02-24 13:34:00,
2013-02-24 08:39:00,69.5,66.7,29.96,SW,224,3.0,7.0,91,0.00,CLR,CLR,0.00,WeatherDisplay:10.37,2013-02-24 13:39:00,
2013-02-24 08:44:00,69.6,66.5,29.96,SW,214,5.0,6.0,90,0.00,CLR,CLR,0.00,WeatherDisplay:10.37,2013-02-24 13:44:00,
2013-02-24 08:49:00,70.0,66.9,29.95,SW,225,5.0,8.0,90,0.00,CLR,CLR,0.00,WeatherDisplay:10.37,2013-02-24 13:49:00,
2013-02-24 08:54:00,70.7,67.3,29.95,SW,219,6.0,7.0,89,0.00,CLR,CLR,0.00,WeatherDisplay:10.37,2013-02-24 13:54:00,
2013-02-24 08:59:00,71.2,67.2,29.95,SSW,202,7.0,9.0,87,0.00,CLR,CLR,0.00,WeatherDisplay:10.37,2013-02-24 13:59:00,
2013-02-24 09:04:00,71.2,67.1,29.96,SSW,206,6.0,8.0,87,0.00,CLR,CLR,0.00,WeatherDisplay:10.37,2013-02-24 14:04:00,
2013-02-24 09:09:00,71.8,67.4,29.96,SW,225,5.0,6.0,86,0.00,CLR,CLR,0.00,WeatherDisplay:10.37,2013-02-24 14:09:00,
2013-02-24 09:14:00,72.0,67.6,29.96,WSW,245,5.0,6.0,86,0.00,CLR,CLR,0.00,WeatherDisplay:10.37,2013-02-24 14:14:00,
2013-02-24 09:19:00,72.1,67.7,29.96,WSW,258,3.0,6.0,86,0.00,CLR,CLR,0.00,WeatherDisplay:10.37,2013-02-24 14:19:00,
2013-02-24 09:24:00,72.7,67.9,29.97,WSW,256,3.0,4.0,85,0.00,CLR,CLR,0.00,WeatherDisplay:10.37,2013-02-24 14:24:00,
2013-02-24 09:29:00,73.4,68.0,29.97,SW,236,5.0,6.0,83,0.00,CLR,CLR,0.00,WeatherDisplay:10.37,2013-02-24 14:29:00,
2013-02-24 09:34:00,73.4,67.9,29.97,WSW,242,3.0,7.0,83,0.00,CLR,CLR,0.00,WeatherDisplay:10.37,2013-02-24 14:34:00,
2013-02-24 09:39:00,73.9,68.1,29.97,WSW,244,5.0,5.0,82,0.00,CLR,CLR,0.00,WeatherDisplay:10.37,2013-02-24 14:39:00,
2013-02-24 09:44:00,73.8,68.0,29.97,WSW,247,3.0,9.0,82,0.00,CLR,CLR,0.00,WeatherDisplay:10.37,2013-02-24 14:44:00,
2013-02-24 09:49:00,73.9,68.1,29.97,WSW,248,3.0,6.0,82,0.00,CLR,CLR,0.00,WeatherDisplay:10.37,2013-02-24 14:49:00,
2013-02-24 09:54:00,74.5,67.9,29.97,SW,229,3.0,6.0,80,0.00,CLR,CLR,0.00,WeatherDisplay:10.37,2013-02-24 14:54:00,
2013-02-24 09:59:00,74.7,68.1,29.97,WSW,245,5.0,6.0,80,0.00,CLR,CLR,0.00,WeatherDisplay:10.37,2013-02-24 14:59:00,
2013-02-24 10:04:00,75.4,68.8,29.97,WSW,250,3.0,6.0,80,0.00,CLR,CLR,0.00,WeatherDisplay:10.37,2013-02-24 15:04:00,
2013-02-24 10:09:00,75.7,68.7,29.97,WSW,250,5.0,6.0,79,0.00,CLR,CLR,0.00,WeatherDisplay:10.37,2013-02-24 15:09:00,
2013-02-24 10:19:00,76.6,68.8,29.97,WSW,240,3.0,5.0,77,0.00,CLR,CLR,0.00,WeatherDisplay:10.37,2013-02-24 15:19:00,
2013-02-24 10:24:00,77.4,69.2,29.97,West,266,6.0,6.0,76,0.00,CLR,CLR,0.00,WeatherDisplay:10.37,2013-02-24 15:24:00,
2013-02-24 10:29:00,77.4,68.9,29.97,West,276,3.0,6.0,75,0.00,CLR,CLR,0.00,WeatherDisplay:10.37,2013-02-24 15:29:00,
2013-02-24 10:34:00,77.7,69.1,29.97,West,274,6.0,7.0,75,0.00,CLR,CLR,0.00,WeatherDisplay:10.37,2013-02-24 15:34:00,
2013-02-24 10:39:00,78.4,69.4,29.97,West,259,3.0,6.0,74,0.00,CLR,CLR,0.00,WeatherDisplay:10.37,2013-02-24 15:39:00,
2013-02-24 10:44:00,78.4,69.8,29.97,WSW,240,3.0,6.0,75,0.00,CLR,CLR,0.00,WeatherDisplay:10.37,2013-02-24 15:44:00,
2013-02-24 10:49:00,79.3,69.5,29.97,WSW,237,3.0,5.0,72,0.00,CLR,CLR,0.00,WeatherDisplay:10.37,2013-02-24 15:49:00,
2013-02-24 10:54:00,79.4,69.2,29.97,SW,226,5.0,6.0,71,0.00,CLR,CLR,0.00,WeatherDisplay:10.37,2013-02-24 15:54:00,
2013-02-24 10:59:00,80.6,69.9,29.97,SW,222,3.0,5.0,70,0.00,CLR,CLR,0.00,WeatherDisplay:10.37,2013-02-24 15:59:00,
2013-02-24 11:04:00,81.7,70.5,29.97,SW,235,3.0,6.0,69,0.00,CLR,CLR,0.00,WeatherDisplay:10.37,2013-02-24 16:04:00,
2013-02-24 11:09:00,82.6,70.5,29.97,SW,236,3.0,7.0,67,0.00,CLR,CLR,0.00,WeatherDisplay:10.37,2013-02-24 16:09:00,
2013-02-24 11:14:00,81.3,69.7,29.97,WSW,238,6.0,8.0,68,0.00,CLR,CLR,0.00,WeatherDisplay:10.37,2013-02-24 16:14:00,
2013-02-24 11:19:00,82.0,70.0,29.97,SW,236,5.0,7.0,67,0.00,CLR,CLR,0.00,WeatherDisplay:10.37,2013-02-24 16:19:00,
2013-02-24 11:24:00,82.3,70.2,29.97,SW,234,6.0,7.0,67,0.00,CLR,CLR,0.00,WeatherDisplay:10.37,2013-02-24 16:24:00,
2013-02-24 11:29:00,83.6,70.6,29.96,SSW,213,5.0,6.0,65,0.00,CLR,CLR,0.00,WeatherDisplay:10.37,2013-02-24 16:29:00,
2013-02-24 11:34:00,84.3,70.3,29.96,SW,222,6.0,7.0,63,0.00,CLR,CLR,0.00,WeatherDisplay:10.37,2013-02-24 16:34:00,
2013-02-24 11:39:00,83.4,70.4,29.96,SW,229,5.0,7.0,65,0.00,CLR,CLR,0.00,WeatherDisplay:10.37,2013-02-24 16:39:00,
2013-02-24 11:44:00,83.9,70.4,29.96,SW,233,5.0,9.0,64,0.00,CLR,CLR,0.00,WeatherDisplay:10.37,2013-02-24 16:44:00,
2013-02-24 11:49:00,83.2,70.2,29.95,SW,222,5.0,7.0,65,0.00,CLR,CLR,0.00,WeatherDisplay:10.37,2013-02-24 16:49:00,
2013-02-24 11:54:00,84.1,70.2,29.95,SW,214,5.0,9.0,63,0.00,CLR,CLR,0.00,WeatherDisplay:10.37,2013-02-24 16:54:00,
2013-02-24 11:59:00,84.3,70.3,29.95,SW,218,5.0,8.0,63,0.00,CLR,CLR,0.00,WeatherDisplay:10.37,2013-02-24 16:59:00,
2013-02-24 12:04:00,85.3,70.8,29.94,SW,228,5.0,7.0,62,0.00,CLR,CLR,0.00,WeatherDisplay:10.37,2013-02-24 17:04:00,
2013-02-24 12:09:00,84.7,70.2,29.94,WSW,237,7.0,8.0,62,0.00,CLR,CLR,0.00,WeatherDisplay:10.37,2013-02-24 17:09:00,
2013-02-24 12:14:00,84.1,70.6,29.94,SW,227,3.0,5.0,64,0.00,CLR,CLR,0.00,WeatherDisplay:10.37,2013-02-24 17:14:00,
2013-02-24 12:19:00,84.4,70.9,29.94,SW,232,3.0,9.0,64,0.00,CLR,CLR,0.00,WeatherDisplay:10.37,2013-02-24 17:19:00,
2013-02-24 12:24:00,83.9,69.9,29.94,WSW,254,3.0,6.0,63,0.00,CLR,CLR,0.00,WeatherDisplay:10.37,2013-02-24 17:24:00,
2013-02-24 12:29:00,83.4,69.5,29.94,SW,231,2.0,5.0,63,0.00,CLR,CLR,0.00,WeatherDisplay:10.37,2013-02-24 17:29:00,
2013-02-24 12:34:00,83.5,70.0,29.94,SW,232,3.0,6.0,64,0.00,CLR,CLR,0.00,WeatherDisplay:10.37,2013-02-24 17:34:00,
2013-02-24 12:39:00,83.7,70.3,29.93,West,265,2.0,7.0,64,0.00,CLR,CLR,0.00,WeatherDisplay:10.37,2013-02-24 17:39:00,
2013-02-24 12:44:00,84.6,70.2,29.93,WSW,254,3.0,5.0,62,0.00,CLR,CLR,0.00,WeatherDisplay:10.37,2013-02-24 17:44:00,
2013-02-24 12:49:00,83.3,69.4,29.93,West,265,6.0,8.0,63,0.00,CLR,CLR,0.00,WeatherDisplay:10.37,2013-02-24 17:49:00,
2013-02-24 12:54:00,84.0,69.6,29.93,West,271,3.0,6.0,62,0.00,CLR,CLR,0.00,WeatherDisplay:10.37,2013-02-24 17:54:00,
2013-02-24 12:59:00,84.7,70.7,29.93,WSW,247,3.0,7.0,63,0.00,CLR,CLR,0.00,WeatherDisplay:10.37,2013-02-24 17:59:00,
2013-02-24 13:04:00,84.6,69.7,29.92,WSW,238,5.0,7.0,61,0.00,CLR,CLR,0.00,WeatherDisplay:10.37,2013-02-24 18:04:00,
2013-02-24 13:09:00,84.7,70.2,29.92,WSW,249,5.0,7.0,62,0.00,CLR,CLR,0.00,WeatherDisplay:10.37,2013-02-24 18:09:00,
2013-02-24 13:19:00,84.6,69.7,29.92,West,274,5.0,7.0,61,0.00,CLR,CLR,0.00,WeatherDisplay:10.37,2013-02-24 18:19:00,
2013-02-24 13:24:00,85.3,69.3,29.92,West,261,5.0,6.0,59,0.00,CLR,CLR,0.00,WeatherDisplay:10.37,2013-02-24 18:24:00,
2013-02-24 13:29:00,85.5,69.0,29.92,WSW,255,5.0,6.0,58,0.00,CLR,CLR,0.00,WeatherDisplay:10.37,2013-02-24 18:29:00,
2013-02-24 13:34:00,85.3,68.8,29.92,WSW,248,2.0,7.0,58,0.00,CLR,CLR,0.00,WeatherDisplay:10.37,2013-02-24 18:34:00,
2013-02-24 13:39:00,85.3,68.9,29.92,WSW,237,5.0,7.0,58,0.00,CLR,CLR,0.00,WeatherDisplay:10.37,2013-02-24 18:39:00,
2013-02-24 13:44:00,84.2,68.3,29.92,WSW,244,3.0,5.0,59,0.00,CLR,CLR,0.00,WeatherDisplay:10.37,2013-02-24 18:44:00,
2013-02-24 13:49:00,84.3,68.9,29.92,West,264,3.0,7.0,60,0.00,CLR,CLR,0.00,WeatherDisplay:10.37,2013-02-24 18:49:00,
2013-02-24 13:54:00,84.2,68.3,29.92,WSW,241,3.0,6.0,59,0.00,CLR,CLR,0.00,WeatherDisplay:10.37,2013-02-24 18:54:00,
2013-02-24 13:59:00,84.2,68.3,29.92,WSW,238,3.0,6.0,59,0.00,CLR,CLR,0.00,WeatherDisplay:10.37,2013-02-24 18:59:00,
2013-02-24 14:04:00,84.2,68.8,29.91,WSW,251,2.0,5.0,60,0.00,CLR,CLR,0.00,WeatherDisplay:10.37,2013-02-24 19:04:00,
2013-02-24 14:09:00,84.7,68.3,29.91,WSW,253,2.0,3.0,58,0.00,CLR,CLR,0.00,WeatherDisplay:10.37,2013-02-24 19:09:00,
2013-02-24 14:14:00,85.3,68.8,29.91,WSW,257,2.0,3.0,58,0.00,CLR,CLR,0.00,WeatherDisplay:10.37,2013-02-24 19:14:00,
2013-02-24 14:19:00,85.0,68.6,29.91,West,262,3.0,5.0,58,0.00,CLR,CLR,0.00,WeatherDisplay:10.37,2013-02-24 19:19:00,
2013-02-24 14:24:00,82.9,69.0,29.91,WNW,298,6.0,6.0,63,0.00,CLR,CLR,0.00,WeatherDisplay:10.37,2013-02-24 19:24:00,
2013-02-24 14:29:00,81.3,69.3,29.91,NNW,331,2.0,6.0,67,0.00,CLR,CLR,0.00,WeatherDisplay:10.37,2013-02-24 19:29:00,
2013-02-24 14:34:00,80.4,70.2,29.91,NE,54,6.0,7.0,71,0.00,CLR,CLR,0.00,WeatherDisplay:10.37,2013-02-24 19:34:00,
2013-02-24 14:39:00,77.3,70.6,29.91,NE,47,6.0,14.0,80,0.02,RA,RA,0.02,WeatherDisplay:10.37,2013-02-24 19:39:00,
2013-02-24 14:44:00,74.4,70.3,29.91,NW,324,7.0,14.0,87,0.12,RA,RA,0.14,WeatherDisplay:10.37,2013-02-24 19:44:00,
2013-02-24 14:49:00,72.4,69.3,29.92,NW,304,8.0,13.0,90,0.34,RA,RA,0.48,WeatherDisplay:10.37,2013-02-24 19:49:00,
2013-02-24 14:54:00,71.4,68.3,29.92,North,349,3.0,9.0,90,0.11,RA,RA,0.59,WeatherDisplay:10.37,2013-02-24 19:54:00,
2013-02-24 14:59:00,71.5,69.0,29.92,ENE,57,5.0,7.0,92,0.03,RA,RA,0.62,WeatherDisplay:10.37,2013-02-24 19:59:00,
2013-02-24 15:04:00,71.9,69.4,29.92,NE,50,3.0,6.0,92,0.00,RA,RA,0.62,WeatherDisplay:10.37,2013-02-24 20:04:00,
2013-02-24 15:09:00,72.2,70.0,29.92,NE,55,3.0,5.0,93,0.01,RA,RA,0.63,WeatherDisplay:10.37,2013-02-24 20:09:00,
2013-02-24 15:14:00,72.5,70.4,29.92,ENE,61,2.0,3.0,93,0.00,RA,RA,0.63,WeatherDisplay:10.37,2013-02-24 20:14:00,
2013-02-24 15:19:00,72.5,70.4,29.92,ENE,77,2.0,2.0,93,0.00,CLR,CLR,0.63,WeatherDisplay:10.37,2013-02-24 20:19:00,
2013-02-24 15:24:00,72.9,71.1,29.92,East,90,1.0,2.0,94,0.00,CLR,CLR,0.63,WeatherDisplay:10.37,2013-02-24 20:24:00,
2013-02-24 15:29:00,72.9,71.1,29.92,East,90,1.0,2.0,94,0.00,CLR,CLR,0.63,WeatherDisplay:10.37,2013-02-24 20:29:00,
2013-02-24 15:34:00,72.9,71.1,29.92,East,90,1.0,2.0,94,0.00,CLR,CLR,0.63,WeatherDisplay:10.37,2013-02-24 20:34:00,
2013-02-24 15:39:00,72.9,71.1,29.92,East,90,1.0,2.0,94,0.00,CLR,CLR,0.63,WeatherDisplay:10.37,2013-02-24 20:39:00,
2013-02-24 15:44:00,72.9,71.1,29.92,East,90,1.0,2.0,94,0.00,CLR,CLR,0.63,WeatherDisplay:10.37,2013-02-24 20:44:00,
2013-02-24 15:49:00,72.9,71.1,29.92,East,90,1.0,2.0,94,0.00,CLR,CLR,0.63,WeatherDisplay:10.37,2013-02-24 20:49:00,
2013-02-24 15:54:00,72.9,71.1,29.92,East,90,1.0,2.0,94,0.00,CLR,CLR,0.63,WeatherDisplay:10.37,2013-02-24 20:54:00,
2013-02-24 15:59:00,72.9,71.1,29.92,East,90,1.0,2.0,94,0.00,CLR,CLR,0.63,WeatherDisplay:10.37,2013-02-24 20:59:00,
2013-02-24 16:04:00,72.9,71.1,29.92,East,90,1.0,2.0,94,0.00,CLR,CLR,0.63,WeatherDisplay:10.37,2013-02-24 21:04:00,
2013-02-24 16:09:00,72.6,70.1,29.92,East,81,2.0,5.0,92,0.00,CLR,CLR,0.63,WeatherDisplay:10.37,2013-02-24 21:09:00,
2013-02-24 16:14:00,72.1,69.3,29.92,NE,41,6.0,7.0,91,0.00,CLR,CLR,0.63,WeatherDisplay:10.37,2013-02-24 21:14:00,
2013-02-24 16:19:00,72.1,69.3,29.92,NE,49,5.0,6.0,91,0.00,CLR,CLR,0.63,WeatherDisplay:10.37,2013-02-24 21:19:00,
2013-02-24 16:24:00,71.4,68.6,29.92,ENE,78,6.0,8.0,91,0.00,CLR,CLR,0.63,WeatherDisplay:10.37,2013-02-24 21:24:00,
2013-02-24 16:29:00,71.1,68.7,29.92,ENE,64,6.0,8.0,92,0.00,CLR,CLR,0.63,WeatherDisplay:10.37,2013-02-24 21:29:00,
2013-02-24 16:34:00,70.5,68.1,29.92,ENE,59,7.0,11.0,92,0.00,CLR,CLR,0.63,WeatherDisplay:10.37,2013-02-24 21:34:00,
2013-02-24 16:39:00,70.3,67.9,29.92,NE,55,5.0,9.0,92,0.00,CLR,CLR,0.63,WeatherDisplay:10.37,2013-02-24 21:39:00,
2013-02-24 16:44:00,70.3,67.9,29.92,ENE,70,5.0,9.0,92,0.00,CLR,CLR,0.63,WeatherDisplay:10.37,2013-02-24 21:44:00,
2013-02-24 16:49:00,70.3,67.9,29.92,ENE,57,5.0,6.0,92,0.00,CLR,CLR,0.63,WeatherDisplay:10.37,2013-02-24 21:49:00,
2013-02-24 16:54:00,70.3,67.9,29.92,ENE,58,3.0,6.0,92,0.00,CLR,CLR,0.63,WeatherDisplay:10.37,2013-02-24 21:54:00,
2013-02-24 16:59:00,70.3,67.9,29.92,ENE,57,5.0,6.0,92,0.00,CLR,CLR,0.63,WeatherDisplay:10.37,2013-02-24 21:59:00,
2013-02-24 17:04:00,70.3,67.9,29.92,NE,35,3.0,6.0,92,0.00,CLR,CLR,0.63,WeatherDisplay:10.37,2013-02-24 22:04:00,
2013-02-24 17:09:00,70.2,67.8,29.92,NNE,15,5.0,7.0,92,0.00,CLR,CLR,0.63,WeatherDisplay:10.37,2013-02-24 22:09:00,
2013-02-24 17:14:00,70.2,67.8,29.92,NNE,32,5.0,7.0,92,0.00,CLR,CLR,0.63,WeatherDisplay:10.37,2013-02-24 22:14:00,
2013-02-24 17:19:00,70.0,67.6,29.92,NE,38,3.0,6.0,92,0.00,CLR,CLR,0.63,WeatherDisplay:10.37,2013-02-24 22:19:00,
2013-02-24 17:24:00,70.0,67.6,29.92,NE,50,3.0,6.0,92,0.00,CLR,CLR,0.63,WeatherDisplay:10.37,2013-02-24 22:24:00,
2013-02-24 17:29:00,70.0,67.6,29.92,NE,51,3.0,6.0,92,0.00,CLR,CLR,0.63,WeatherDisplay:10.37,2013-02-24 22:29:00,
2013-02-24 17:34:00,70.0,67.6,29.92,North,11,3.0,6.0,92,0.00,CLR,CLR,0.63,WeatherDisplay:10.37,2013-02-24 22:34:00,
2013-02-24 17:39:00,70.0,67.6,29.91,East,99,5.0,8.0,92,0.00,CLR,CLR,0.63,WeatherDisplay:10.37,2013-02-24 22:39:00,
2013-02-24 17:49:00,70.0,67.6,29.92,NNE,26,5.0,9.0,92,0.00,CLR,CLR,0.63,WeatherDisplay:10.37,2013-02-24 22:49:00,
2013-02-24 17:54:00,70.0,67.6,29.92,East,91,2.0,6.0,92,0.00,CLR,CLR,0.63,WeatherDisplay:10.37,2013-02-24 22:54:00,
2013-02-24 17:59:00,70.0,67.6,29.92,North,0,2.0,3.0,92,0.00,CLR,CLR,0.63,WeatherDisplay:10.37,2013-02-24 22:59:00,
2013-02-24 18:04:00,69.8,67.4,29.92,North,5,2.0,5.0,92,0.00,CLR,CLR,0.63,WeatherDisplay:10.37,2013-02-24 23:04:00,
2013-02-24 18:09:00,69.6,67.2,29.92,NNE,21,1.0,3.0,92,0.00,CLR,CLR,0.63,WeatherDisplay:10.37,2013-02-24 23:09:00,
2013-02-24 18:14:00,69.6,67.2,29.93,NE,56,2.0,5.0,92,0.00,CLR,CLR,0.63,WeatherDisplay:10.37,2013-02-24 23:14:00,
2013-02-24 18:19:00,69.4,67.0,29.93,East,86,0.0,3.0,92,0.00,CLR,CLR,0.63,WeatherDisplay:10.37,2013-02-24 23:19:00,
2013-02-24 18:24:00,69.3,66.9,29.93,ESE,106,2.0,3.0,92,0.00,CLR,CLR,0.63,WeatherDisplay:10.37,2013-02-24 23:24:00,
2013-02-24 18:29:00,69.2,66.7,29.93,ENE,76,3.0,5.0,92,0.00,CLR,CLR,0.63,WeatherDisplay:10.37,2013-02-24 23:29:00,
2013-02-24 18:34:00,69.1,66.7,29.93,NE,40,3.0,5.0,92,0.00,CLR,CLR,0.63,WeatherDisplay:10.37,2013-02-24 23:34:00,
2013-02-24 18:39:00,69.1,66.7,29.92,NE,42,2.0,4.0,92,0.00,CLR,CLR,0.63,WeatherDisplay:10.37,2013-02-24 23:39:00,
2013-02-24 18:44:00,68.9,66.5,29.92,NE,56,2.0,5.0,92,0.00,CLR,CLR,0.63,WeatherDisplay:10.37,2013-02-24 23:44:00,
2013-02-24 18:49:00,68.9,66.5,29.93,ENE,70,2.0,3.0,92,0.00,CLR,CLR,0.63,WeatherDisplay:10.37,2013-02-24 23:49:00,
2013-02-24 18:54:00,68.9,66.5,29.93,ENE,70,2.0,4.0,92,0.00,CLR,CLR,0.63,WeatherDisplay:10.37,2013-02-24 23:54:00,
2013-02-24 18:59:00,68.7,66.3,29.93,ENE,61,3.0,4.0,92,0.00,CLR,CLR,0.63,WeatherDisplay:10.37,2013-02-24 23:59:00,
2013-02-24 19:04:00,68.7,66.3,29.93,ENE,72,2.0,4.0,92,0.00,CLR,CLR,0.63,WeatherDisplay:10.37,2013-02-25 00:04:00,
2013-02-24 19:09:00,68.7,66.3,29.93,ENE,63,2.0,4.0,92,0.00,CLR,CLR,0.63,WeatherDisplay:10.37,2013-02-25 00:09:00,
2013-02-24 19:14:00,68.7,66.3,29.94,NE,55,3.0,5.0,92,0.00,CLR,CLR,0.63,WeatherDisplay:10.37,2013-02-25 00:14:00,
2013-02-24 19:19:00,68.7,66.3,29.94,ENE,63,2.0,5.0,92,0.00,CLR,CLR,0.63,WeatherDisplay:10.37,2013-02-25 00:19:00,
2013-02-24 19:24:00,68.7,66.3,29.95,East,97,1.0,3.0,92,0.00,CLR,CLR,0.63,WeatherDisplay:10.37,2013-02-25 00:24:00,
2013-02-24 19:29:00,68.7,66.3,29.95,East,97,3.0,5.0,92,0.00,CLR,CLR,0.63,WeatherDisplay:10.37,2013-02-25 00:29:00,
2013-02-24 19:34:00,68.7,66.3,29.95,ENE,66,3.0,4.0,92,0.00,CLR,CLR,0.63,WeatherDisplay:10.37,2013-02-25 00:34:00,
2013-02-24 19:39:00,68.9,66.5,29.95,ENE,61,3.0,5.0,92,0.00,CLR,CLR,0.63,WeatherDisplay:10.37,2013-02-25 00:39:00,
2013-02-24 19:44:00,68.9,66.5,29.95,ENE,62,2.0,5.0,92,0.00,CLR,CLR,0.63,WeatherDisplay:10.37,2013-02-25 00:44:00,
2013-02-24 19:49:00,68.9,66.5,29.95,ENE,70,3.0,4.0,92,0.00,CLR,CLR,0.63,WeatherDisplay:10.37,2013-02-25 00:49:00,
2013-02-24 19:54:00,68.9,66.5,29.95,ENE,74,2.0,4.0,92,0.00,CLR,CLR,0.63,WeatherDisplay:10.37,2013-02-25 00:54:00,
2013-02-24 19:59:00,68.9,66.8,29.95,East,87,2.0,4.0,93,0.00,CLR,CLR,0.63,WeatherDisplay:10.37,2013-02-25 00:59:00,
2013-02-24 20:04:00,68.9,66.8,29.95,East,81,3.0,4.0,93,0.00,CLR,CLR,0.63,WeatherDisplay:10.37,2013-02-25 01:04:00,
2013-02-24 20:09:00,68.9,66.8,29.95,ENE,70,2.0,5.0,93,0.00,CLR,CLR,0.63,WeatherDisplay:10.37,2013-02-25 01:09:00,
2013-02-24 20:14:00,68.9,66.8,29.96,ENE,61,2.0,3.0,93,0.00,CLR,CLR,0.63,WeatherDisplay:10.37,2013-02-25 01:14:00,
2013-02-24 20:19:00,68.9,66.8,29.96,ENE,61,1.0,3.0,93,0.00,CLR,CLR,0.63,WeatherDisplay:10.37,2013-02-25 01:19:00,
2013-02-24 20:24:00,68.9,66.8,29.96,ENE,61,2.0,3.0,93,0.00,CLR,CLR,0.63,WeatherDisplay:10.37,2013-02-25 01:24:00,
2013-02-24 20:29:00,68.7,66.6,29.96,ENE,64,2.0,3.0,93,0.00,CLR,CLR,0.63,WeatherDisplay:10.37,2013-02-25 01:29:00,
2013-02-24 20:34:00,68.7,66.6,29.96,East,94,1.0,3.0,93,0.00,CLR,CLR,0.63,WeatherDisplay:10.37,2013-02-25 01:34:00,
2013-02-24 20:39:00,68.7,66.9,29.96,East,85,2.0,4.0,94,0.00,CLR,CLR,0.63,WeatherDisplay:10.37,2013-02-25 01:39:00,
2013-02-24 20:44:00,68.7,66.9,29.96,NE,56,2.0,3.0,94,0.00,CLR,CLR,0.63,WeatherDisplay:10.37,2013-02-25 01:44:00,
2013-02-24 20:49:00,68.7,66.9,29.96,ENE,70,1.0,3.0,94,0.00,CLR,CLR,0.63,WeatherDisplay:10.37,2013-02-25 01:49:00,
2013-02-24 20:54:00,68.7,66.9,29.96,East,79,2.0,3.0,94,0.00,CLR,CLR,0.63,WeatherDisplay:10.37,2013-02-25 01:54:00,
2013-02-24 20:59:00,68.7,66.9,29.96,East,83,0.0,2.0,94,0.00,CLR,CLR,0.63,WeatherDisplay:10.37,2013-02-25 01:59:00,
2013-02-24 21:04:00,68.7,66.9,29.97,East,86,1.0,3.0,94,0.00,CLR,CLR,0.63,WeatherDisplay:10.37,2013-02-25 02:04:00,
2013-02-24 21:09:00,68.9,67.1,29.97,ENE,61,1.0,2.0,94,0.00,CLR,CLR,0.63,WeatherDisplay:10.37,2013-02-25 02:09:00,
2013-02-24 21:14:00,68.9,67.1,29.97,ENE,62,2.0,4.0,94,0.00,CLR,CLR,0.63,WeatherDisplay:10.37,2013-02-25 02:14:00,
2013-02-24 21:19:00,68.9,67.1,29.97,ENE,66,1.0,2.0,94,0.00,CLR,CLR,0.63,WeatherDisplay:10.37,2013-02-25 02:19:00,
2013-02-24 21:24:00,68.9,67.1,29.96,East,82,1.0,3.0,94,0.00,CLR,CLR,0.63,WeatherDisplay:10.37,2013-02-25 02:24:00,
2013-02-24 21:29:00,68.9,67.1,29.96,ESE,109,1.0,2.0,94,0.00,CLR,CLR,0.63,WeatherDisplay:10.37,2013-02-25 02:29:00,
2013-02-24 21:34:00,68.7,66.9,29.96,ESE,111,0.0,2.0,94,0.00,CLR,CLR,0.63,WeatherDisplay:10.37,2013-02-25 02:34:00,
2013-02-24 21:39:00,68.7,66.9,29.97,East,94,0.0,2.0,94,0.00,CLR,CLR,0.63,WeatherDisplay:10.37,2013-02-25 02:39:00,
2013-02-24 21:44:00,68.7,66.9,29.97,ENE,62,2.0,2.0,94,0.00,CLR,CLR,0.63,WeatherDisplay:10.37,2013-02-25 02:44:00,
2013-02-24 21:49:00,68.6,66.8,29.96,ENE,57,0.0,2.0,94,0.00,CLR,CLR,0.63,WeatherDisplay:10.37,2013-02-25 02:49:00,
2013-02-24 21:54:00,68.5,66.7,29.96,ENE,64,0.0,3.0,94,0.00,CLR,CLR,0.63,WeatherDisplay:10.37,2013-02-25 02:54:00,
2013-02-24 21:59:00,68.5,66.7,29.96,ENE,77,2.0,3.0,94,0.00,CLR,CLR,0.63,WeatherDisplay:10.37,2013-02-25 02:59:00,
2013-02-24 22:04:00,68.5,66.7,29.96,East,84,0.0,1.0,94,0.00,CLR,CLR,0.63,WeatherDisplay:10.37,2013-02-25 03:04:00,
2013-02-24 22:09:00,68.5,67.0,29.96,ENE,66,1.0,2.0,95,0.00,CLR,CLR,0.63,WeatherDisplay:10.37,2013-02-25 03:09:00,
2013-02-24 22:14:00,68.5,67.0,29.95,NNE,31,0.0,0.0,95,0.00,CLR,CLR,0.63,WeatherDisplay:10.37,2013-02-25 03:14:00,
2013-02-24 22:19:00,68.4,66.9,29.95,NE,48,0.0,0.0,95,0.00,CLR,CLR,0.63,WeatherDisplay:10.37,2013-02-25 03:19:00,
2013-02-24 22:24:00,68.4,66.9,29.95,ENE,73,2.0,3.0,95,0.00,CLR,CLR,0.63,WeatherDisplay:10.37,2013-02-25 03:24:00,
2013-02-24 22:29:00,68.4,66.9,29.95,ENE,77,0.0,2.0,95,0.00,CLR,CLR,0.63,WeatherDisplay:10.37,2013-02-25 03:29:00,
2013-02-24 22:34:00,68.4,66.9,29.95,East,87,0.0,0.0,95,0.00,CLR,CLR,0.63,WeatherDisplay:10.37,2013-02-25 03:34:00,
2013-02-24 22:39:00,68.4,66.9,29.95,East,91,0.0,2.0,95,0.00,CLR,CLR,0.63,WeatherDisplay:10.37,2013-02-25 03:39:00,
2013-02-24 22:44:00,68.2,66.7,29.95,East,88,0.0,3.0,95,0.00,CLR,CLR,0.63,WeatherDisplay:10.37,2013-02-25 03:44:00,
2013-02-24 22:49:00,68.2,66.7,29.94,East,92,0.0,2.0,95,0.00,CLR,CLR,0.63,WeatherDisplay:10.37,2013-02-25 03:49:00,
2013-02-24 22:54:00,68.2,66.7,29.94,East,81,0.0,2.0,95,0.00,CLR,CLR,0.63,WeatherDisplay:10.37,2013-02-25 03:54:00,
2013-02-24 22:59:00,68.4,66.9,29.94,ENE,62,1.0,2.0,95,0.00,CLR,CLR,0.63,WeatherDisplay:10.37,2013-02-25 03:59:00,
2013-02-24 23:04:00,68.4,66.9,29.94,NE,52,0.0,2.0,95,0.00,CLR,CLR,0.63,WeatherDisplay:10.37,2013-02-25 04:04:00,
2013-02-24 23:09:00,68.4,66.9,29.94,NE,36,0.0,0.0,95,0.00,CLR,CLR,0.63,WeatherDisplay:10.37,2013-02-25 04:09:00,
2013-02-24 23:14:00,68.2,66.7,29.93,NE,52,0.0,1.0,95,0.00,CLR,CLR,0.63,WeatherDisplay:10.37,2013-02-25 04:14:00,
2013-02-24 23:19:00,68.2,66.7,29.93,ENE,72,0.0,3.0,95,0.00,CLR,CLR,0.63,WeatherDisplay:10.37,2013-02-25 04:19:00,
2013-02-24 23:24:00,68.2,67.0,29.93,ESE,105,0.0,2.0,96,0.00,CLR,CLR,0.63,WeatherDisplay:10.37,2013-02-25 04:24:00,
2013-02-24 23:29:00,68.3,67.1,29.93,East,81,0.0,0.0,96,0.00,CLR,CLR,0.63,WeatherDisplay:10.37,2013-02-25 04:29:00,
2013-02-24 23:34:00,68.4,67.2,29.93,ESE,104,0.0,0.0,96,0.00,CLR,CLR,0.63,WeatherDisplay:10.37,2013-02-25 04:34:00,
2013-02-24 23:39:00,68.2,67.0,29.93,SE,126,0.0,0.0,96,0.00,CLR,CLR,0.63,WeatherDisplay:10.37,2013-02-25 04:39:00,
2013-02-24 23:49:00,68.1,66.9,29.92,ENE,70,1.0,2.0,96,0.00,CLR,CLR,0.63,WeatherDisplay:10.37,2013-02-25 04:49:00,
2013-02-24 23:54:00,68.0,66.8,29.92,ENE,66,1.0,2.0,96,0.00,CLR,CLR,0.63,WeatherDisplay:10.37,2013-02-25 04:54:00,
2013-02-24 23:59:00,68.0,66.8,29.92,ENE,67,0.0,2.0,96,0.00,RA,RA,0.00,WeatherDisplay:10.37,2013-02-25 04:59:00,